This demonstration page uses our WeatherBlox Daily Observations layout. Learn more.

Left ArrowRight Arrow

53.62937, 11.41316

Hourly Observations for July 1, 2016

Temp ( °F °C ) Dew Point ( °F °C ) Humidity (%) Winds ( mph kmh ) Pressure ( in mb ) Visibility ( mi km ) Precip ( " mm )
6:20 am 06:20 Mostly Sunny 64 18 57 14 78 78 SSW 12 19 29.88 1012 7 11 N/A
6:50 am 06:50 Mostly Sunny 64 18 59 15 83 83 SW 12 19 29.88 1012 7 11 N/A
7:20 am 07:20 Mostly Sunny 66 19 59 15 78 78 SSW 12 19 29.88 1012 7 11 N/A
7:50 am 07:50 Mostly Sunny 66 19 59 15 78 78 SSW 12 19 29.88 1012 7 11 N/A
8:20 am 08:20 Mostly Sunny 68 20 59 15 73 73 SW 17 28 29.88 1012 30 48 N/A
8:50 am 08:50 Mostly Sunny 68 20 57 14 69 69 SW 18 30 29.88 1012 30 48 N/A
9:20 am 09:20 Mostly Sunny 70 21 57 14 64 64 SW 17 28 29.88 1012 30 48 N/A
9:50 am 09:50 Mostly Sunny 70 21 59 15 69 69 SW 18 30 29.91 1013 30 48 N/A
10:20 am 10:20 Partly Cloudy 70 21 59 15 69 69 SSW 14 22 29.91 1013 30 48 N/A
10:50 am 10:50 Mostly Cloudy 70 21 59 15 69 69 SSW 14 22 29.91 1013 30 48 N/A
11:20 am 11:20 Mostly Cloudy 72 22 59 15 65 65 SSW 17 28 29.91 1013 30 48 N/A
11:50 am 11:50 Mostly Cloudy 72 22 59 15 65 65 SSW 17 28 29.91 1013 30 48 N/A
12:20 pm 12:20 Partly Cloudy 73 23 59 15 61 61 SSW 16 26 29.91 1013 30 48 N/A
12:50 pm 12:50 Partly Cloudy 73 23 59 15 61 61 SSW 16 26 29.91 1013 30 48 N/A
1:20 pm 13:20 Partly Cloudy 75 24 59 15 57 57 SSW 14 22 29.88 1012 30 48 N/A
1:50 pm 13:50 Mostly Cloudy 75 24 57 14 54 54 S 16 26 29.91 1013 30 48 N/A
2:20 pm 14:20 Mostly Cloudy 73 23 59 15 61 61 SSW 14 22 29.88 1012 30 48 N/A
2:50 pm 14:50 Mostly Cloudy 73 23 59 15 61 61 SSW 15 24 29.88 1012 30 48 N/A
3:20 pm 15:20 Mostly Cloudy 73 23 61 16 65 65 SSW 13 20 29.88 1012 30 48 N/A
3:50 pm 15:50 Mostly Cloudy 75 24 59 15 57 57 SSW 15 24 29.88 1012 30 48 N/A
4:20 pm 16:20 Mostly Cloudy 75 24 59 15 57 57 SSW 16 26 29.88 1012 30 48 N/A
4:50 pm 16:50 Mostly Cloudy 75 24 59 15 57 57 SW 16 26 29.88 1012 30 48 N/A
5:20 pm 17:20 Mostly Cloudy 73 23 59 15 61 61 SSW 16 26 29.88 1012 30 48 N/A
5:50 pm 17:50 Mostly Sunny 73 23 59 15 61 61 SSW 17 28 29.88 1012 7 11 N/A
6:20 pm 18:20 Mostly Sunny 73 23 59 15 61 61 SSW 12 19 29.88 1012 7 11 N/A
6:50 pm 18:50 Mostly Cloudy 73 23 59 15 61 61 SSW 8 13 29.88 1012 30 48 N/A
7:20 pm 19:20 Mostly Sunny 73 23 59 15 61 61 SSW 10 17 29.88 1012 7 11 N/A
7:50 pm 19:50 Mostly Sunny 72 22 61 16 69 69 SSW 6 9 29.88 1012 7 11 N/A

Powered by AerisWeather